TimeEDT,TemperatureF,Dew PointF,Humidity,Sea Level PressureIn,VisibilityMPH,Wind Direction,Wind SpeedMPH,Gust SpeedMPH,PrecipitationIn,Events,Conditions,WindDirDegrees,DateUTC
12:52 AM,57.0,55.0,93,30.26,10.0,Calm,Calm,-,N/A,,Unknown,0,2013-07-13 04:52:00
1:52 AM,54.0,53.1,97,30.28,10.0,Calm,Calm,-,N/A,,Clear,0,2013-07-13 05:52:00
2:52 AM,53.1,52.0,96,30.29,10.0,Calm,Calm,-,N/A,,Clear,0,2013-07-13 06:52:00
2:59 AM,53.6,51.8,94,30.30,10.0,Calm,Calm,-,N/A,,Scattered Clouds,0,2013-07-13 06:59:00
3:08 AM,51.8,51.8,100,30.30,10.0,Calm,Calm,-,N/A,,Mostly Cloudy,0,2013-07-13 07:08:00
3:22 AM,53.6,53.6,100,30.30,1.5,Calm,Calm,-,N/A,,Overcast,0,2013-07-13 07:22:00
3:29 AM,53.6,53.6,100,30.30,1.0,Calm,Calm,-,N/A,,Overcast,0,2013-07-13 07:29:00
3:32 AM,53.6,53.6,100,30.30,2.0,Calm,Calm,-,N/A,,Overcast,0,2013-07-13 07:32:00
3:39 AM,53.6,53.6,100,30.30,1.2,Calm,Calm,-,N/A,,Overcast,0,2013-07-13 07:39:00
3:48 AM,53.6,53.6,100,30.30,0.5,Calm,Calm,-,N/A,Fog,Fog,0,2013-07-13 07:48:00
3:52 AM,53.1,52.0,96,30.30,0.5,Calm,Calm,-,N/A,Fog,Fog,0,2013-07-13 07:52:00
3:59 AM,51.8,51.8,100,30.30,1.8,Calm,Calm,-,N/A,,Overcast,0,2013-07-13 07:59:00
4:06 AM,51.8,51.8,100,30.30,10.0,Calm,Calm,-,N/A,,Overcast,0,2013-07-13 08:06:00
4:20 AM,51.8,51.8,100,30.30,2.5,Calm,Calm,-,N/A,,Overcast,0,2013-07-13 08:20:00
4:27 AM,53.6,51.8,94,30.31,8.0,Calm,Calm,-,N/A,,Overcast,0,2013-07-13 08:27:00
4:36 AM,53.6,51.8,94,30.31,1.2,Calm,Calm,-,N/A,,Overcast,0,2013-07-13 08:36:00
4:40 AM,53.6,53.6,100,30.31,0.2,Calm,Calm,-,N/A,Fog,Fog,0,2013-07-13 08:40:00
4:47 AM,53.6,53.6,100,30.31,0.2,Calm,Calm,-,N/A,Fog,Fog,0,2013-07-13 08:47:00
4:52 AM,53.1,53.1,100,30.30,0.2,Calm,Calm,-,N/A,Fog,Fog,0,2013-07-13 08:52:00
5:29 AM,55.4,55.4,100,30.30,0.2,Calm,Calm,-,N/A,Fog,Fog,0,2013-07-13 09:29:00
5:52 AM,55.0,54.0,96,30.30,0.2,Calm,Calm,-,N/A,Fog,Fog,0,2013-07-13 09:52:00
6:01 AM,53.6,53.6,100,30.31,0.2,Calm,Calm,-,N/A,Fog,Fog,0,2013-07-13 10:01:00
6:52 AM,55.0,55.0,100,30.32,0.2,Calm,Calm,-,N/A,Fog,Fog,0,2013-07-13 10:52:00
7:40 AM,57.2,57.2,100,30.33,1.0,Calm,Calm,-,N/A,,Overcast,0,2013-07-13 11:40:00
7:46 AM,57.2,55.4,94,30.33,2.0,Calm,Calm,-,N/A,,Overcast,0,2013-07-13 11:46:00
7:52 AM,57.9,57.0,97,30.33,9.0,Calm,Calm,-,N/A,,Overcast,0,2013-07-13 11:52:00
8:27 AM,62.6,59.0,88,30.34,10.0,Calm,Calm,-,N/A,,Scattered Clouds,0,2013-07-13 12:27:00
8:52 AM,66.9,60.1,79,30.34,10.0,Calm,Calm,-,N/A,,Clear,0,2013-07-13 12:52:00
9:52 AM,72.0,62.1,71,30.33,10.0,Calm,Calm,-,N/A,,Clear,0,2013-07-13 13:52:00
10:52 AM,78.1,55.9,46,30.32,10.0,Calm,Calm,-,N/A,,Clear,0,2013-07-13 14:52:00
11:52 AM,79.0,55.9,45,30.32,10.0,SSW,4.6,-,N/A,,Clear,200,2013-07-13 15:52:00
12:52 PM,80.1,55.9,43,30.32,10.0,Variable,3.5,-,N/A,,Clear,0,2013-07-13 16:52:00
1:52 PM,81.0,57.0,44,30.30,10.0,Calm,Calm,-,N/A,,Clear,0,2013-07-13 17:52:00
2:52 PM,82.0,59.0,45,30.30,10.0,South,4.6,-,N/A,,Clear,180,2013-07-13 18:52:00
3:52 PM,81.0,59.0,47,30.30,10.0,SSW,4.6,-,N/A,,Clear,200,2013-07-13 19:52:00
4:52 PM,80.1,62.1,54,30.29,10.0,SE,4.6,-,N/A,,Clear,140,2013-07-13 20:52:00
5:52 PM,78.1,63.0,60,30.29,10.0,SSE,3.5,-,N/A,,Scattered Clouds,150,2013-07-13 21:52:00
6:52 PM,77.0,64.9,66,30.29,10.0,East,3.5,-,N/A,,Overcast,100,2013-07-13 22:52:00
7:52 PM,75.0,66.9,76,30.30,10.0,Calm,Calm,-,N/A,,Overcast,0,2013-07-13 23:52:00
8:52 PM,70.0,66.0,87,30.30,10.0,Calm,Calm,-,N/A,,Mostly Cloudy,0,2013-07-14 00:52:00
9:52 PM,69.1,66.0,90,30.30,10.0,Calm,Calm,-,N/A,,Mostly Cloudy,0,2013-07-14 01:52:00
10:52 PM,66.9,64.9,93,30.31,10.0,Calm,Calm,-,N/A,,Mostly Cloudy,0,2013-07-14 02:52:00
11:52 PM,64.9,62.1,90,30.31,10.0,Calm,Calm,-,N/A,,Clear,0,2013-07-14 03:52:00